Tracking 29511 objects as of 18-Sep-2024
HD Live streaming from Space Station
objects crossing your sky now

FENGYUN 1C DEB

Track FENGYUN 1C DEB now!
10-day predictions


NORAD ID: 30411
Int'l Code: 1999-025AEA
Perigee: 796.3 km
Apogee: 987.7 km
Inclination: 98.6 °
Period: 102.7 minutes
Semi major axis: 7263 km
RCS: 0.03 m2 (small)
Launch date: May 10, 1999
Source: People's Republic of China (PRC)
Launch site: Taiyaun Space Center, China (TSC)

Note: This is SATELLITE DEBRIS
Your satellite tracking list
Your tracking list is empty




NASA's NSSDC Master Catalog

Two Line Element Set (TLE):
1 30411U 99025AEA 24261.25469031  .00031427  00000-0  18845-1 0  9993
2 30411  98.5725 189.7039 0131763 304.1118  54.7606 14.02579508896410
Source of the keplerian elements: AFSPC